IRVINE01 (43693 NORAD) Tracking and Keplerian Element Data

This shows tracking and keplerian element data for the satellite.

Feedback or suggestion? Click here.




ElementValue
Catalog43693
NameIRVINE01
Epoch Orbit23273
Epoch Day13.42930744
Epoch Year2023
RAAN165.8642
Inclination85.0135
Eccentricity0.0008963
Argument of Perigee343.002
Mean Anonmoly17.095
Mean Motion15.76855024
Decay Rate0.0047103
L11 43693U 18088D 23013.42930744 .00471030 00000+0 27787-2 0 9999
L22 43693 85.0135 165.8642 0008963 343.0020 17.0950 15.76855024232731



Live tracking and technical data element details for IRVINE01 (NORAD 43693). IRVINE01 can be tracked NOW for your location showing map with azimuth and elevation plus other details from your city location.







IsCatalogInMostPopularTable: catalog: 43693, numindb: 502
Update: records affected: 1



GetName: 43693 IRVINE01

Hit Count: updated at: Sat, 06 Dec 2025 12:57:30 GMT